Home > Weather > Malaysia > Kuching > Past weeks

Flag for Malaysia Weather past 2 weeks in Kuching, Malaysia

77 °F

Partly cloudy.

Feels Like: 78 °F
Forecast: 76 / 86 °F
Wind: 5 mph from Southeast

Location: Kuching Airport

Current Time: Dec 1, 2015 at 9:52:43 PM

Latest Report: Dec 1, 2015 at 9:00 PM

Visibility: N/A

Pressure: 29.89 "Hg

Humidity: 100%

Dew point: 77 °F

Location of KuchingLocation

Historic Weather in Kuching — Graph


Kuching temperature yesterday

Maximum temperature yesterday: 90 °F (at 2:00 PM)
Minimum temperature yesterday: 77 °F (at 1:30 AM)
Average temperature yesterday: 80 °F

Past Weeks' High & Low Weather Summary

High91 °F (Nov 19, 1:00 PM)100% (Nov 16, 8:00 PM)29.95 "Hg (Nov 16, 8:00 PM)
Low73 °F (Nov 16, 8:00 PM)56% (Nov 19, 2:00 PM)29.68 "Hg (Nov 20, 4:00 PM)
Average80 °F88%29.80 "Hg
* Reported Nov 16 8:00 PM — Dec 1 8:30 PM, Kuching, Weather by CustomWeather, © 2015

Note: Actual official high and low records may vary slightly from our data, if they occured in-between our weather recording intervals... More about our weather records


Kuching weather history for previous 24 hours

Time TempWeatherWind HumidityBarometerVisibility
8:30 PM
Tue, Dec 1
77 °FPartly cloudy.2 mph100%29.89 "HgN/A
8:00 PM77 °FPartly cloudy.3 mph100%29.86 "HgN/A
7:30 PM77 °FLight rain. Partly cloudy.1 mph100%29.86 "Hg4 mi
7:00 PM77 °FLight rain. Partly cloudy.2 mph94%29.83 "Hg3 mi
6:30 PM77 °FLight rain. Partly cloudy.3 mph100%29.83 "Hg3 mi
6:00 PM79 °FLight rain. Broken clouds.3 mph94%29.80 "Hg3 mi
5:30 PM79 °FLight rain. Broken clouds.2 mph94%29.80 "Hg3 mi
5:00 PM79 °FLight rain. Broken clouds.3 mph94%29.80 "Hg3 mi
4:30 PM79 °FLight rain. Broken clouds.1 mph94%29.80 "Hg3 mi
3:30 PM77 °FLight rain. Broken clouds.2 mph94%29.80 "Hg4 mi
3:00 PM77 °FLight rain. Broken clouds.3 mph100%29.80 "Hg4 mi
2:30 PM77 °FLight rain. Broken clouds.5 mph94%29.83 "Hg4 mi
2:00 PM77 °FLight rain. Broken clouds.6 mph94%29.83 "Hg4 mi
1:30 PM79 °FRain showers. Partly sunny.10 mph94%29.83 "Hg4 mi
1:00 PM81 °FSprinkles. Broken clouds.6 mph89%29.86 "HgN/A
12:30 PM81 °FBroken clouds.3 mph89%29.86 "HgN/A
12:00 PM81 °FBroken clouds.3 mph89%29.86 "HgN/A
11:30 AM81 °FBroken clouds.2 mph89%29.89 "HgN/A
11:00 AM81 °FBroken clouds.5 mph89%29.89 "HgN/A
10:30 AM81 °FBroken clouds.3 mph89%29.89 "Hg6 mi
10:00 AM81 °FBroken clouds.3 mph89%29.89 "HgN/A
8:30 AM79 °FBroken clouds.6 mph94%29.86 "HgN/A
7:30 AM79 °FBroken clouds.6 mph94%29.83 "Hg5 mi
7:00 AM77 °FBroken clouds.5 mph100%29.83 "Hg5 mi
6:30 AM77 °FBroken clouds.6 mph94%29.83 "HgN/A
6:00 AM77 °FPartly cloudy.5 mph94%29.80 "HgN/A
5:30 AM77 °FPartly cloudy.6 mph94%29.80 "HgN/A
5:00 AM77 °FPartly cloudy.5 mph94%29.80 "HgN/A
4:30 AM79 °FPartly cloudy.6 mph89%29.80 "HgN/A
4:00 AM77 °FPartly cloudy.5 mph94%29.80 "HgN/A
3:30 AM77 °FPartly cloudy.6 mph94%29.80 "HgN/A
3:00 AM77 °FPartly cloudy.5 mph94%29.80 "HgN/A
2:30 AM77 °FPartly cloudy.5 mph94%29.80 "HgN/A
2:00 AM77 °FPartly cloudy.5 mph94%29.83 "HgN/A
1:30 AM77 °FPartly cloudy.3 mph100%29.83 "HgN/A
1:00 AM77 °FPartly cloudy.3 mph94%29.83 "HgN/A
12:30 AM77 °FPartly cloudy.5 mph94%29.83 "HgN/A
12:00 AM77 °FPartly cloudy.5 mph100%29.86 "HgN/A
11:30 PM
Mon, Nov 30
79 °FPartly cloudy.6 mph94%29.86 "HgN/A
11:00 PM79 °FPartly cloudy.6 mph94%29.86 "HgN/A
10:30 PM79 °FPartly cloudy.5 mph94%29.86 "HgN/A
10:00 PM79 °FThunderstorms. Partly cloudy.5 mph94%29.86 "HgN/A
9:30 PM79 °FThunderstorms. Partly cloudy.7 mph94%29.86 "HgN/A
9:00 PM79 °FThunderstorms. Partly cloudy.6 mph100%29.86 "HgN/A
Weather by CustomWeather, © 2015

See weather overviewHow to use our weather pages